When you browse on this site, cookies collect data to enhance your experience and personalize the content and advertising you see.
Visit our Privacy Policy to learn more. By continuing to use the site, you agree to this use of cookies and data.
  • In Deutschland
  • Länderverzeichnis
  • Für 7 Tage
  • Wassertemperatur
  • Wetterkarte
  • Widgets
  • user-avatar
    Anmelden

    Stündliche Wetter Baraki Barak

    Heute, 18 September, Mittwoch

    Zeit Temperatur Niederschläge Wind Luftdruck Luftfeuchtigkeit
    00:00 +14°C° 0 mm 1 m/S 597 mmHg 13%
    01:00 +14°C° 0 mm 1 m/S 597 mmHg 14%
    02:00 +13°C° 0 mm 1 m/S 597 mmHg 15%
    03:00 +12°C° 0 mm 1 m/S 597 mmHg 17%
    04:00 +12°C° 0 mm 1 m/S 596 mmHg 18%
    05:00 +11°C° 0 mm 1 m/S 596 mmHg 18%
    06:00 +14°C° 0 mm 1 m/S 598 mmHg 15%
    07:00 +18°C° 0 mm 1 m/S 599 mmHg 12%
    08:00 +20°C° 0 mm 1 m/S 601 mmHg 9%
    09:00 +22°C° 0 mm 1 m/S 602 mmHg 8%
    10:00 +25°C° 0 mm 1 m/S 603 mmHg 7%
    11:00 +27°C° 0 mm 1 m/S 603 mmHg 5%
    12:00 +28°C° 0 mm 1 m/S 603 mmHg 5%
    13:00 +29°C° 0 mm 1 m/S 603 mmHg 4%
    14:00 +30°C° 0 mm 1 m/S 604 mmHg 3%
    15:00 +30°C° 0 mm 2 m/S 603 mmHg 3%
    16:00 +30°C° 0 mm 2 m/S 603 mmHg 3%
    17:00 +30°C° 0 mm 3 m/S 603 mmHg 3%
    18:00 +27°C° 0 mm 2 m/S 602 mmHg 5%
    19:00 +23°C° 0 mm 1 m/S 601 mmHg 6%
    20:00 +20°C° 0 mm 1 m/S 600 mmHg 8%
    21:00 +19°C° 0 mm 1 m/S 600 mmHg 11%
    22:00 +18°C° 0 mm 1 m/S 599 mmHg 13%
    23:00 +16°C° 0 mm 1 m/S 599 mmHg 15%

    Morgen, 19 September, Donnerstag

    Zeit Temperatur Niederschläge Wind Luftdruck Luftfeuchtigkeit
    00:00 +16°C° 0 mm 1 m/S 599 mmHg 17%
    01:00 +14°C° 0 mm 0 m/S 598 mmHg 19%
    02:00 +13°C° 0 mm 0 m/S 598 mmHg 20%
    03:00 +14°C° 0 mm 1 m/S 598 mmHg 20%
    04:00 +13°C° 0 mm 1 m/S 598 mmHg 20%
    05:00 +13°C° 0 mm 1 m/S 598 mmHg 19%
    06:00 +15°C° 0 mm 1 m/S 599 mmHg 17%
    07:00 +18°C° 0 mm 1 m/S 601 mmHg 14%
    08:00 +20°C° 0 mm 1 m/S 602 mmHg 12%
    09:00 +22°C° 0 mm 1 m/S 603 mmHg 10%
    10:00 +24°C° 0 mm 1 m/S 603 mmHg 9%
    11:00 +26°C° 0 mm 1 m/S 604 mmHg 7%
    12:00 +27°C° 0 mm 1 m/S 604 mmHg 6%
    13:00 +28°C° 0 mm 1 m/S 604 mmHg 5%
    14:00 +29°C° 0 mm 2 m/S 603 mmHg 4%
    15:00 +29°C° 0 mm 2 m/S 603 mmHg 4%
    16:00 +29°C° 0 mm 2 m/S 603 mmHg 4%
    17:00 +29°C° 0 mm 2 m/S 603 mmHg 4%
    18:00 +26°C° 0 mm 2 m/S 602 mmHg 7%
    19:00 +23°C° 0 mm 2 m/S 602 mmHg 10%
    20:00 +20°C° 0 mm 2 m/S 601 mmHg 14%
    21:00 +18°C° 0 mm 2 m/S 601 mmHg 17%
    22:00 +18°C° 0 mm 1 m/S 600 mmHg 20%
    23:00 +16°C° 0 mm 1 m/S 600 mmHg 23%

    übermorgen, 20 September, Freitag

    Zeit Temperatur Niederschläge Wind Luftdruck Luftfeuchtigkeit
    00:00 +15°C° 0 mm 1 m/S 599 mmHg 24%
    01:00 +15°C° 0 mm 1 m/S 599 mmHg 24%
    02:00 +14°C° 0 mm 1 m/S 598 mmHg 25%
    03:00 +14°C° 0 mm 1 m/S 598 mmHg 26%
    04:00 +13°C° 0 mm 1 m/S 598 mmHg 27%
    05:00 +12°C° 0 mm 1 m/S 598 mmHg 27%
    06:00 +14°C° 0 mm 1 m/S 599 mmHg 25%
    07:00 +16°C° 0 mm 1 m/S 600 mmHg 22%
    08:00 +19°C° 0 mm 1 m/S 601 mmHg 19%
    09:00 +21°C° 0 mm 1 m/S 601 mmHg 17%
    10:00 +23°C° 0 mm 1 m/S 602 mmHg 15%
    11:00 +25°C° 0 mm 1 m/S 602 mmHg 13%
    12:00 +26°C° 0 mm 1 m/S 602 mmHg 11%
    13:00 +27°C° 0 mm 1 m/S 602 mmHg 10%
    14:00 +28°C° 0 mm 1 m/S 602 mmHg 8%
    15:00 +28°C° 0 mm 1 m/S 602 mmHg 7%
    16:00 +28°C° 0 mm 2 m/S 602 mmHg 7%
    17:00 +28°C° 0 mm 2 m/S 601 mmHg 6%
    18:00 +26°C° 0 mm 2 m/S 601 mmHg 9%
    19:00 +23°C° 0 mm 1 m/S 600 mmHg 11%
    20:00 +20°C° 0 mm 1 m/S 599 mmHg 13%
    21:00 +19°C° 0 mm 1 m/S 599 mmHg 15%
    22:00 +18°C° 0 mm 1 m/S 599 mmHg 17%
    23:00 +16°C° 0 mm 1 m/S 599 mmHg 19%

    21 September, Samstag

    Zeit Temperatur Niederschläge Wind Luftdruck Luftfeuchtigkeit
    00:00 +15°C° 0 mm 1 m/S 598 mmHg 20%
    01:00 +14°C° 0 mm 0 m/S 598 mmHg 21%
    02:00 +13°C° 0 mm 0 m/S 597 mmHg 22%
    03:00 +13°C° 0 mm 1 m/S 597 mmHg 24%
    04:00 +13°C° 0 mm 1 m/S 597 mmHg 25%
    05:00 +12°C° 0 mm 1 m/S 596 mmHg 26%
    06:00 +14°C° 0 mm 1 m/S 598 mmHg 24%
    07:00 +18°C° 0 mm 1 m/S 599 mmHg 21%
    08:00 +20°C° 0 mm 1 m/S 600 mmHg 18%
    09:00 +22°C° 0 mm 1 m/S 601 mmHg 16%
    10:00 +24°C° 0 mm 1 m/S 601 mmHg 14%
    11:00 +26°C° 0 mm 1 m/S 602 mmHg 12%
    12:00 +27°C° 0 mm 1 m/S 601 mmHg 10%
    13:00 +28°C° 0 mm 1 m/S 601 mmHg 8%
    14:00 +29°C° 0 mm 1 m/S 601 mmHg 7%
    15:00 +29°C° 0 mm 1 m/S 601 mmHg 6%
    16:00 +30°C° 0 mm 1 m/S 601 mmHg 6%
    17:00 +30°C° 0 mm 2 m/S 601 mmHg 6%
    18:00 +26°C° 0 mm 1 m/S 600 mmHg 8%
    19:00 +23°C° 0 mm 1 m/S 599 mmHg 11%
    20:00 +20°C° 0 mm 1 m/S 598 mmHg 13%
    21:00 +19°C° 0 mm 1 m/S 598 mmHg 17%
    22:00 +19°C° 0 mm 1 m/S 598 mmHg 22%
    23:00 +18°C° 0 mm 1 m/S 597 mmHg 26%

    22 September, Sonntag

    Zeit Temperatur Niederschläge Wind Luftdruck Luftfeuchtigkeit
    00:00 +16°C° 0 mm 1 m/S 597 mmHg 31%
    01:00 +15°C° 0 mm 0 m/S 597 mmHg 36%
    02:00 +14°C° 0 mm 0 m/S 597 mmHg 42%
    03:00 +14°C° 0 mm 0 m/S 597 mmHg 44%
    04:00 +13°C° 0 mm 0 m/S 596 mmHg 46%
    05:00 +13°C° 0 mm 0 m/S 596 mmHg 48%
    06:00 +15°C° 0 mm 0 m/S 598 mmHg 42%
    07:00 +17°C° 0 mm 0 m/S 600 mmHg 35%
    08:00 +20°C° 0 mm 0 m/S 601 mmHg 29%
    09:00 +22°C° 0 mm 0 m/S 602 mmHg 24%
    10:00 +23°C° 0 mm 0 m/S 602 mmHg 20%
    11:00 +27°C° 0 mm 1 m/S 603 mmHg 16%
    12:00 +28°C° 0 mm 1 m/S 603 mmHg 14%
    13:00 +30°C° 0 mm 1 m/S 603 mmHg 12%
    14:00 +31°C° 0 mm 1 m/S 603 mmHg 10%
    15:00 +31°C° 0 mm 2 m/S 602 mmHg 9%
    16:00 +31°C° 0 mm 2 m/S 602 mmHg 9%
    17:00 +31°C° 0 mm 2 m/S 602 mmHg 8%
    18:00 +28°C° 0 mm 2 m/S 602 mmHg 12%
    19:00 +25°C° 0 mm 2 m/S 601 mmHg 16%
    20:00 +22°C° 0 mm 1 m/S 600 mmHg 19%
    21:00 +21°C° 0 mm 1 m/S 600 mmHg 21%
    22:00 +20°C° 0 mm 1 m/S 600 mmHg 23%
    23:00 +19°C° 0 mm 1 m/S 600 mmHg 25%

    23 September, Montag

    Zeit Temperatur Niederschläge Wind Luftdruck Luftfeuchtigkeit
    00:00 +18°C° 0 mm 1 m/S 600 mmHg 25%
    01:00 +16°C° 0 mm 1 m/S 599 mmHg 26%
    02:00 +15°C° 0 mm 1 m/S 599 mmHg 26%
    03:00 +15°C° 0 mm 1 m/S 599 mmHg 26%
    04:00 +14°C° 0 mm 1 m/S 598 mmHg 27%
    05:00 +14°C° 0 mm 1 m/S 598 mmHg 27%
    06:00 +16°C° 0 mm 1 m/S 599 mmHg 24%
    07:00 +18°C° 0 mm 1 m/S 600 mmHg 21%
    08:00 +20°C° 0 mm 1 m/S 601 mmHg 17%
    09:00 +23°C° 0 mm 1 m/S 602 mmHg 15%
    10:00 +25°C° 0 mm 1 m/S 602 mmHg 13%
    11:00 +27°C° 0 mm 1 m/S 603 mmHg 11%
    12:00 +28°C° 0 mm 1 m/S 603 mmHg 10%
    13:00 +30°C° 0 mm 1 m/S 603 mmHg 9%
    14:00 +31°C° 0 mm 1 m/S 603 mmHg 7%
    15:00 +31°C° 0 mm 1 m/S 603 mmHg 7%
    16:00 +31°C° 0 mm 2 m/S 602 mmHg 7%
    17:00 +31°C° 0 mm 2 m/S 602 mmHg 7%
    18:00 +28°C° 0 mm 2 m/S 601 mmHg 10%
    19:00 +25°C° 0 mm 1 m/S 601 mmHg 13%
    20:00 +22°C° 0 mm 1 m/S 600 mmHg 16%
    21:00 +21°C° 0 mm 1 m/S 600 mmHg 21%
    22:00 +20°C° 0 mm 1 m/S 600 mmHg 25%
    23:00 +17°C° 0 mm 0 m/S 599 mmHg 30%
    Mehr zeigen